• Processing (Info)

  • MPEC 1994-J08 : 1994 GY

    The following Minor Planet Electronic Circular may be linked-to from your own Web pages, but must not otherwise be redistributed electronically.

    A form allowing access to any MPEC is at the bottom of this page.


    Read MPEC 1994-J07 Read MPEC 1994-J09


    M.P.E.C. 1994-J08                                Issued 1994 May 13, 17:04 UT
    
         The Minor Planet Electronic Circulars contain information on unusual
             minor planets and routine data on comets.  They are published
       on behalf of Commission 20 of the International Astronomical Union by the
              Minor Planet Center, Smithsonian Astrophysical Observatory,
                              Cambridge, MA 02138, U.S.A.
    
              MARSDEN@CFA or WILLIAMS@CFA (.HARVARD.EDU, .SPAN or .BITNET)
    
                                        1994 GY
    
    Selected additional observations:
         J94G00Y  C1994 04 29.97311 13 26 38.26 -11 52 23.4                      111
         J94G00Y  C1994 05 01.64690 13 26 18.74 -13 30 24.8                      413
         J94G00Y  C1994 05 02.69169 13 26 09.57 -14 32 12.1                      413
         J94G00Y  C1994 05 06.48803 13 26 01.68 -18 16 46.8                      411
         J94G00Y  C1994 05 06.54410 13 26 01.37 -18 20 03.0          15.6 V      360
    
    Observer details:
    111 Piazzano Observatory, Florence.  Observers R. Bettarini, A. Boattini,
        M. Tombelli.  0.20-m f/10 Schmidt-Cassegrain + CCD.
    360 Kuma Kogen. Observer A. Nakamura.  0.60-m f/6.0 Ritchey-Chretien + CCD.
    411 Oizumi. Observer T. Kobayashi.  0.25-m f/4.4 reflector + CCD.
    413 Siding Spring Observatory.  Observers R. H. McNaught, G. J. Garradd,
        D. I. Steel.  Measurer G. J. Garradd.  1.0-m reflector + CCD.
    
    Orbital elements:
    1994 GY
    Epoch 1994 Apr. 18.0 TT = JDT 2449460.5                 Williams
    M 355.34110              (2000.0)            P               Q
    n   0.22575614     Peri.  189.96560     -0.72061025     +0.68267968
    a   2.6712201      Node    34.11843     -0.62033849     -0.55680057
    e   0.5321604      Incl.   12.47016     -0.30967891     -0.47320353
    P   4.37           H    17.0          G   0.15
    From 69 observations 1994 Apr. 14-May 6.
    
    Ephemeris:
    1994 GY                  a,e,i = 2.67, 0.53, 12                  q = 1.2497
    Date    TT    R. A. (2000) Decl.     Delta      r     Elong.  Phase     V
    1994 05 08    13 26.12   -19 44.3    0.256    1.250   157.8    17.8    15.5
    1994 05 13    13 27.34   -24 26.3    0.262    1.251   153.4    21.2    15.6
    1994 05 18    13 30.04   -28 47.6    0.273    1.254   149.4    24.3    15.8
    1994 05 23    13 34.37   -32 42.7    0.287    1.260   145.8    26.9    16.0
    1994 05 28    13 40.38   -36 08.6    0.304    1.268   142.6    29.0    16.2
    1994 06 02    13 48.04   -39 04.8    0.324    1.279   139.9    30.7    16.4
    1994 06 07    13 57.27   -41 32.3    0.346    1.292   137.7    31.9    16.6
    1994 06 12    14 07.99   -43 33.1    0.371    1.307   135.7    32.9    16.8
    1994 06 17    14 20.04   -45 09.5    0.398    1.324   134.0    33.5    17.0
    1994 06 22    14 33.19   -46 24.1    0.428    1.343   132.5    33.9    17.2
    1994 06 27    14 47.20   -47 19.1    0.460    1.364   131.2    34.1    17.4
    1994 07 02    15 01.82   -47 56.7    0.494    1.386   129.9    34.3    17.6
    1994 07 07    15 16.86   -48 19.0    0.531    1.410   128.6    34.3    17.8
    1994 07 12    15 32.15   -48 27.9    0.570    1.435   127.3    34.3    18.0
    1994 07 17    15 47.53   -48 25.5    0.611    1.461   125.9    34.3    18.2
    1994 07 22    16 02.84   -48 13.5    0.655    1.489   124.5    34.2    18.4
    1994 07 27    16 17.97   -47 53.3    0.702    1.517   123.1    34.1    18.6
    1994 08 01    16 32.83   -47 26.3    0.751    1.546   121.5    34.0    18.7
    1994 08 06    16 47.39   -46 53.6    0.803    1.576   119.8    33.9    18.9
    1994 08 11    17 01.63   -46 16.3    0.858    1.607   118.1    33.8    19.1
    1994 08 16    17 15.54   -45 35.3    0.915    1.638   116.3    33.7    19.3
    1994 08 21    17 29.10   -44 51.4    0.975    1.669   114.3    33.5    19.5
    1994 08 26    17 42.30   -44 05.1    1.037    1.701   112.4    33.3    19.6
    1994 08 31    17 55.16   -43 16.9    1.102    1.734   110.3    33.1    19.8
    1994 09 05    18 07.70   -42 27.1    1.170    1.766   108.1    32.9    20.0
    1994 09 10    18 19.94   -41 36.2    1.240    1.799   105.9    32.6    20.1
    1994 09 15    18 31.90   -40 44.3    1.312    1.832   103.6    32.2    20.3
    1994 09 20    18 43.58   -39 51.7    1.387    1.865   101.3    31.9    20.4
    1994 09 25    18 54.99   -38 58.4    1.463    1.898    98.9    31.5    20.6
    1994 09 30    19 06.16   -38 04.7    1.541    1.931    96.5    31.0    20.7
    1994 10 05    19 17.10   -37 10.5    1.621    1.964    94.0    30.5    20.8
    1994 10 10    19 27.83   -36 16.0    1.703    1.997    91.5    30.0    21.0
    1994 10 15    19 38.35   -35 21.1    1.786    2.030    89.0    29.4    21.1
    1994 10 20    19 48.68   -34 25.9    1.870    2.063    86.4    28.8    21.2
    1994 10 25    19 58.81   -33 30.5    1.955    2.096    83.8    28.1    21.3
    
    Gareth V. Williams                                            M.P.E.C. 1994-J08
    

    Read MPEC 1994-J07 Read MPEC 1994-J09


    MPEC number:

    Enter an MPEC number in one of the following forms:

    • 1997-B01 (the full form)
    • J97B01 (the packed version of the full form)
    • B01 (the abbreviated form)